Location: Daouli
(14.8671°N, 3.2030°W)
Time: 02:24:07
(UTC+00:00)

MOS 1 Rocket - Pass Details

Date: 29 October 2020
Orbit: 615 x 829 km, 97.4° (Epoch: 02 December)

Event Time Altitude Azimuth Distance (km) Brightness Sun altitude
Rises 18:10:54 0° 27° (NNE) 3,165 6.3 -6.9°
Reaches altitude 10° 18:13:21 10° 37° (NE) 2,276 5.5 -7.5°
Maximum altitude 18:17:50 32° 100° (E) 1,319 4.3 -8.5°
Drops below altitude 10° 18:22:29 10° 162° (SSE) 2,377 6.0 -9.6°
Sets 18:25:05 0° 172° (S) 3,328 6.9 -10.2°
